Regional Weather Roundup
Issued by NWS

Home | Current Version | Previous Version | Graphics & Text | Print | Product List | Glossary On
Versions: 1 2 3 4 5 6 7 8 9 10 11 12 13 14 15 16 17 18 19 20 21 22 23 24 25 26 27 28 29 30 31 32 33 34 35 36 37 38 39 40 41 42 43 44 45 46 47 48 49 50
000
ASUS45 KCYS 271610
RWRWY

WYOMING REGIONAL WEATHER ROUNDUP
NATIONAL WEATHER SERVICE CHEYENNE WY
1000 AM MDT WED AUG 27 2014

NOTE:  "FAIR" INDICATES FEW OR NO CLOUDS BELOW 12,000 FEET
WITH NO SIGNIFICANT WEATHER AND/OR OBSTRUCTIONS TO VISIBILITY.

WYZ001-271700-
YELLOWSTONE NATIONAL PARK

CITY           SKY/WX    TMP DP  RH WIND       PRES   REMARKS
LK YELLOWSTONE   N/A     52  45  77 CALM      30.39S
W YELLOWSTONE  NOT AVBL

$$
WYZ002>013-054>058-071-098>099-271700-
NORTHERN WYOMING

CITY           SKY/WX    TMP DP  RH WIND       PRES   REMARKS
JACKSON        PTSUNNY   52  45  76 CALM      30.32S
CODY           PTSUNNY   66  52  59 CALM      30.19S
GREYBULL       PTSUNNY   67  50  54 W5        30.13F
WORLAND        CLOUDY    62  54  74 NW5       30.14S
SHERIDAN       PTSUNNY   62  50  64 CALM      30.13S
BUFFALO        PTSUNNY   69  52  54 SE9       30.19S
GILLETTE       MOSUNNY   70  55  59 S6        30.16F
HULETT         FAIR      66  54  63 MISG      30.18
NEWCASTLE      FAIR      72  52  49 MISG      30.15

$$
WYZ014>020-022>026-101>103-271700-
CENTRAL WYOMING

CITY           SKY/WX    TMP DP  RH WIND       PRES   REMARKS
BIG PINEY      LGT RAIN  52  47  83 CALM      30.33R
PINEDALE       CLOUDY    52  45  76 CALM      30.34R
DUBOIS         FAIR      54  43  66 NW7       30.30S
LANDER         LGT RAIN  59  49  69 SE9       30.22R
RIVERTON       CLOUDY    60  48  64 CALM      30.22R
CASPER         LGT RAIN  57  55  93 W7        30.21R FOG
DOUGLAS        CLOUDY    62  58  86 E6        30.19S

$$
WYZ021-027>030-104>119-271700-
SOUTHERN WYOMING

CITY           SKY/WX    TMP DP  RH WIND       PRES   REMARKS
EVANSTON       CLOUDY    52  47  83 S5        30.34R
KEMMERER       LGT RAIN  50  48  93 CALM      30.35S
FORT BRIDGER   CLOUDY    54  51  91 W5        30.37R
ROCK SPRINGS   CLOUDY    54  48  80 CALM      30.31F
DIXON          CLOUDY    56  50  80 CALM      30.33S
RAWLINS        LGT RAIN  53  50  89 W13       30.30S
SARATOGA       CLOUDY    54  48  82 MISG      30.32R
LARAMIE        LGT RAIN  54  50  86 S6        30.29F
CHEYENNE       LGT RAIN  60  56  86 W9        30.21S FOG
TORRINGTON     CLOUDY    66  61  84 SE8       30.12S
PINE BLUFFS    CLOUDY    61  61 100 SE7       30.18S FOG

$$



USA.gov is the U.S. government's official web portal to all federal, state and local government web resources and services.